INTELSAT 10-02 (28358 NORAD) Tracking and Keplerian Element Data

This shows tracking and keplerian element data for the satellite.

Feedback or suggestion? Click here.




ElementValue
Catalog28358
NameINTELSAT 10-02
Epoch Orbit5169
Epoch Day201.55214146
Epoch Year2018
RAAN120.32
Inclination0.0174
Eccentricity3.19E-05
Argument of Perigee295.2905
Mean Anonmoly80.4321
Mean Motion1.00271896
Decay Rate-2.7E-07
L11 28358U 04022A 18201.55214146 -.00000027 00000-0 00000-0 0 9994
L22 28358 0.0174 120.3200 0000319 295.2905 80.4321 1.00271896 51696

Live tracking and technical data element details for INTELSAT 10-02 (NORAD 28358). INTELSAT 10-02 can be tracked NOW for your location showing map with azimuth and elevation plus other details from your city location.

Track the satellite on the map from your city or location and see movement details for azimuth, elevation, latitude, longitude, range, height, and movement on the map or in text.







IsCatalogInMostPopularTable: catalog: 28358, numindb: 46
Update: records affected: 1



GetName: 28358 INTELSAT 10-02

Hit Count: updated at: Sat, 21 Jul 2018 07:57:06 GMT